STARLINK-31691 (59856 NORAD) Tracking and Keplerian Element Data

This shows tracking and keplerian element data for the satellite.

Feedback or suggestion? Click here.




ElementValue
Catalog59856
NameSTARLINK-31691
Epoch Orbit370
Epoch Day160.16667824
Epoch Year2024
RAAN318.5882
Inclination43.0009
Eccentricity0.0001925
Argument of Perigee277.908
Mean Anonmoly103.562
Mean Motion15.6663739
Decay Rate-0.01740888
L11 59856U 24097X 24160.16667824 -.01740888 00000+0 -18387-1 0 9993
L22 59856 43.0009 318.5882 0001925 277.9080 103.5620 15.66637390 3709



Live tracking and technical data element details for STARLINK-31691 (NORAD 59856). STARLINK-31691 can be tracked NOW for your location showing map with azimuth and elevation plus other details from your city location.







IsCatalogInMostPopularTable: catalog: 59856, numindb: 8
Update: records affected: 1



GetName: 59856 STARLINK-31691

Hit Count: updated at: Thu, 25 Jul 2024 01:22:49 GMT